[[{"header":{"parameterUnit":"m.s-1","parameterCategory":1,"la1":30.2991,"la2":30.254,"lo1":-89.0895,"lo2":-89.0444,"dy":0.0017,"dx":0.0017,"nx":28,"ny":28,"refTime":"2023-09-09T09:00:00:Z","depth":0,"parameterNumber":2,"parameterNumberName":"U-component_of_WINDS"},"data":[0,0,0,0,0,0,0,0,0,0,0,0,0,0,0,0,0,0,0,0,0,0,0,0,0,0,0,0,0,0,0,0,0,0,0,0,0,0,0,0,0,0,0,0,0,0,0,0,0,0,0,0,0,0,0,0,0,0,-1.022,-1.0219,0,-1.0171,-1.0171,-1.017,-1.0112,-1.0111,-1.011,-1.0109,-1.0059,-1.0059,-1.0058,0,0,0,0,0,0,0,0,0,0,0,0,0,-1.0262,-1.0261,-1.022,-1.0219,-1.0219,-1.0171,-1.0171,-1.017,-1.0112,-1.0111,-1.011,-1.0109,-1.0059,-1.0059,-1.0058,0,0,0,0,0,0,0,0,0,0,0,0,0,-1.0231,-1.0261,-1.022,-1.0184,-1.018,-1.0172,-1.0171,-1.017,-1.0112,-1.0111,-1.011,-1.0108,-1.006,-1.0059,-1.0058,-1.008,0,0,-1.0056,-1.0055,0,0,0,0,0,0,0,0,-1.0233,-1.023,-1.019,-1.0187,-1.0182,-1.0146,-1.0167,-1.014,-1.0113,-1.0138,-1.0109,-1.0108,-1.0089,-1.0086,-1.008,-1.0078,-1.0076,-1.0056,-1.0055,-1.0055,-1.0055,0,0,0,0,0,0,0,-1.0235,-1.0232,-1.0201,-1.0189,-1.0185,-1.017,-1.0164,-1.0162,-1.0122,-1.0136,-1.0132,-1.0127,-1.0087,-1.0081,-1.0078,-1.0075,-1.0056,-1.0055,-1.0055,-1.0054,-1.0088,-1.009,0,0,0,0,0,0,-1.0243,-1.0234,-1.0202,-1.0199,-1.0205,-1.017,-1.0164,-1.0159,-1.0122,-1.0115,-1.0128,-1.0124,-1.0083,-1.0079,-1.0076,-1.0099,-1.0055,-1.0054,-1.0054,-1.0087,-1.0089,-1.009,0,0,0,0,0,0,-1.0244,-1.0241,-1.0204,-1.0215,-1.021,-1.0171,-1.0166,-1.0159,-1.0153,-1.0116,-1.0108,-1.0129,-1.0081,-1.0077,-1.008,-1.0097,-1.0054,-1.0053,-1.0086,-1.0088,-1.009,-1.0146,0,0,0,0,0,0,-1.0245,-1.0241,-1.025,-1.0216,-1.0209,-1.0209,-1.0167,-1.0159,-1.0152,-1.0146,-1.0115,-1.0108,-1.008,-1.0081,-1.0079,-1.0095,-1.0053,-1.0084,-1.0086,-1.0089,-1.0143,-1.015,-1.0156,0,0,0,0,0,-1.0247,-1.0268,-1.0251,-1.0247,-1.0219,-1.021,-1.0206,-1.0174,-1.0153,-1.0161,-1.0137,-1.0109,-1.0095,-1.0082,-1.0079,-1.0095,-1.0083,-1.0086,-1.0089,-1.014,-1.0149,-1.0156,0,0,0,0,0,0,-1.0305,-1.0263,-1.0243,-1.0253,-1.0236,-1.02,-1.0209,-1.0184,-1.0172,-1.0167,-1.0127,-1.0121,-1.0128,-1.0111,-1.0097,-1.0114,-1.0085,-1.0087,-1.0125,-1.0133,-1.0139,-1.0143,-1.0052,0,0,0,0,0,-1.0319,-1.0315,-1.0279,-1.0291,-1.0283,-1.0248,-1.0243,-1.0219,-1.0199,-1.0192,-1.0168,-1.0149,-1.014,-1.0136,-1.0126,-1.014,-1.0132,-1.015,-1.0156,-1.0162,-1.0165,-1.017,-1.0178,-1.01,-1.01,-1.01,0,0,-1.0347,-1.0324,-1.0324,-1.0302,-1.0286,-1.0283,-1.0242,-1.0241,-1.0238,-1.0191,-1.0192,-1.0174,-1.015,-1.0159,-1.0161,-1.0146,-1.0184,-1.0166,-1.0171,-1.017,-1.0174,-1.0182,-1.0188,-1.0102,-1.0102,-1.0102,0,0,-1.0398,-1.038,-1.0388,-1.0372,-1.0348,-1.0324,-1.0326,-1.0294,-1.0281,-1.0281,-1.0246,-1.0241,-1.0228,-1.0212,-1.0203,-1.0247,-1.022,-1.0245,-1.028,-1.0286,-1.0292,-1.0297,-1.0312,-1.0318,-1.0248,-1.0248,-1.0248,0,-1.0436,-1.043,-1.0395,-1.0396,-1.0387,-1.0345,-1.0353,-1.0339,-1.0313,-1.0307,-1.029,-1.0271,-1.0253,-1.0257,-1.0267,-1.0261,-1.0262,-1.0248,-1.0294,-1.0299,-1.0303,-1.0317,-1.0323,-1.0251,-1.025,-1.025,-1.025,0,-1.0479,-1.0475,-1.0485,-1.046,-1.0453,-1.0457,-1.0422,-1.0418,-1.0396,-1.0374,-1.0374,-1.035,-1.0334,-1.0333,-1.0311,-1.0334,-1.0325,-1.0301,-1.0271,-1.0314,-1.0327,-1.0332,-1.0255,-1.0254,-1.0253,-1.0252,0,0,-1.0564,-1.052,-1.0524,-1.0512,-1.0482,-1.0478,-1.0481,-1.0465,-1.0462,-1.0446,-1.0446,-1.0435,-1.0413,-1.0402,-1.0378,-1.0383,-1.0419,-1.0359,-1.0357,-1.037,-1.0441,-1.0459,-1.0465,-1.0401,-1.0402,-1.0403,-1.0443,0,-1.0608,-1.061,-1.0578,-1.0588,-1.0584,-1.0544,-1.0545,-1.0527,-1.0506,-1.05,-1.0477,-1.0469,-1.0441,-1.0434,-1.0438,-1.0414,-1.0432,-1.041,-1.04,-1.04,-1.0407,-1.0472,-1.049,-1.053,-1.0448,-1.0449,-1.0449,0,-1.0661,-1.0647,-1.0656,-1.0625,-1.0622,-1.0624,-1.0607,-1.0602,-1.058,-1.0564,-1.0552,-1.0524,-1.0523,-1.0495,-1.0493,-1.0479,-1.0473,-1.046,-1.0461,-1.0458,-1.0427,-1.0471,-1.0542,-1.0547,-1.0457,-1.0456,-1.0455,0,-1.0721,-1.0705,-1.0708,-1.0699,-1.0663,-1.0666,-1.0651,-1.0627,-1.062,-1.0605,-1.0599,-1.0585,-1.0577,-1.0566,-1.0534,-1.0516,-1.0536,-1.0505,-1.0522,-1.0523,-1.0528,-1.0528,-1.0598,-1.0525,-1.0525,-1.0525,-1.0525,0,-1.0774,-1.0781,-1.0735,-1.0737,-1.0743,-1.0707,-1.0715,-1.0696,-1.0675,-1.0672,-1.0637,-1.0635,-1.0593,-1.0587,-1.0562,-1.0564,-1.0561,-1.0548,-1.0541,-1.0551,-1.0552,-1.0546,-1.0542,-1.0526,-1.0526,-1.0526,-1.0525,0,-1.0842,-1.0812,-1.0813,-1.0778,-1.077,-1.0776,-1.0747,-1.0747,-1.0724,-1.0721,-1.0718,-1.0682,-1.0672,-1.064,-1.0622,-1.0606,-1.0615,-1.0602,-1.0622,-1.0618,-1.0637,-1.0635,-1.0705,-1.0712,-1.0636,-1.0636,-1.0637,0,-1.0878,-1.0882,-1.0849,-1.0844,-1.0831,-1.0824,-1.0817,-1.0781,-1.0774,-1.0749,-1.0752,-1.0739,-1.0727,-1.0714,-1.0686,-1.0672,-1.0658,-1.0683,-1.0656,-1.0665,-1.0657,-1.0657,-1.0657,-1.0689,-1.069,-1.0691,-1.0692,0,-1.0944,-1.0928,-1.0918,-1.0903,-1.0895,-1.0881,-1.0865,-1.0864,-1.0824,-1.0818,-1.0808,-1.0798,-1.078,-1.0768,-1.0749,-1.0733,-1.0706,-1.0701,-1.0704,-1.0714,-1.0725,-1.0718,-1.0638,-1.0699,-1.0699,-1.0698,-1.0698,-1.0697,-1.0996,-1.0998,-1.0974,-1.0965,-1.0949,-1.0935,-1.0933,-1.091,-1.0901,-1.0883,-1.0863,-1.0855,-1.0832,-1.0804,-1.079,-1.0783,-1.0768,-1.0773,-1.0774,-1.0775,-1.078,-1.0727,-1.0779,-1.0779,-1.0779,-1.0778,-1.0778,0,-1.1059,-1.1042,-1.1034,-1.1013,-1.1005,-1.098,-1.0961,-1.0956,-1.095,-1.0931,-1.0919,-1.0907,-1.0895,-1.0866,-1.0851,-1.085,-1.0838,-1.0848,-1.0847,-1.0844,-1.0794,-1.0793,-1.0858,-1.0858,-1.0858,-1.0858,-1.0858,-1.0858,-1.1092,-1.1093,-1.1075,-1.1069,-1.1051,-1.1043,-1.1034,-1.1021,-1.1005,-1.0993,-1.0983,-1.0964,-1.0941,-1.0924,-1.0911,-1.0903,-1.0899,-1.0913,-1.0901,-1.0855,-1.0847,-1.084,-1.0838,-1.0912,-1.0913,-1.095,-1.0951,-1.0951]},{"header":{"parameterUnit":"m.s-1","parameterCategory":1,"la1":30.2991,"la2":30.254,"lo1":-89.0895,"lo2":-89.0444,"dy":0.0017,"dx":0.0017,"nx":28,"ny":28,"refTime":"2023-09-09T09:00:00:Z","depth":0,"parameterNumber":3,"parameterNumberName":"V-component_of_WINDS"},"data":[0,0,0,0,0,0,0,0,0,0,0,0,0,0,0,0,0,0,0,0,0,0,0,0,0,0,0,0,0,0,0,0,0,0,0,0,0,0,0,0,0,0,0,0,0,0,0,0,0,0,0,0,0,0,0,0,0,0,-1.8012,-1.8011,0,-1.7966,-1.7965,-1.7965,-1.7919,-1.7918,-1.7917,-1.7917,-1.7867,-1.7867,-1.7866,0,0,0,0,0,0,0,0,0,0,0,0,0,-1.8057,-1.8057,-1.8012,-1.8011,-1.8011,-1.7966,-1.7965,-1.7965,-1.7919,-1.7918,-1.7917,-1.7916,-1.7868,-1.7867,-1.7866,0,0,0,0,0,0,0,0,0,0,0,0,0,-1.8027,-1.8056,-1.8012,-1.7982,-1.7979,-1.7966,-1.7965,-1.7964,-1.7919,-1.7918,-1.7917,-1.7916,-1.7868,-1.7867,-1.7866,-1.7877,0,0,-1.7862,-1.7862,0,0,0,0,0,0,0,0,-1.8029,-1.8025,-1.7987,-1.7984,-1.7981,-1.7947,-1.7963,-1.7935,-1.7919,-1.7942,-1.7917,-1.7916,-1.7894,-1.7891,-1.7884,-1.7875,-1.7873,-1.7862,-1.7861,-1.7861,-1.7861,0,0,0,0,0,0,0,-1.8031,-1.8027,-1.7993,-1.7987,-1.7983,-1.7971,-1.7965,-1.7958,-1.7924,-1.794,-1.7936,-1.7932,-1.7892,-1.7886,-1.7883,-1.7872,-1.7862,-1.7861,-1.786,-1.786,-1.787,-1.787,0,0,0,0,0,0,-1.8038,-1.8029,-1.7995,-1.7992,-1.8003,-1.7971,-1.7965,-1.7959,-1.7924,-1.7917,-1.7932,-1.793,-1.7888,-1.7884,-1.7881,-1.7892,-1.7861,-1.786,-1.7859,-1.7869,-1.787,-1.7871,0,0,0,0,0,0,-1.8039,-1.8035,-1.7997,-1.801,-1.8004,-1.7971,-1.7965,-1.7958,-1.7951,-1.7918,-1.7912,-1.7932,-1.7887,-1.7882,-1.7879,-1.789,-1.7859,-1.7858,-1.7868,-1.7869,-1.787,-1.7915,0,0,0,0,0,0,-1.804,-1.8036,-1.804,-1.801,-1.8003,-1.7996,-1.7965,-1.7958,-1.795,-1.7946,-1.7916,-1.791,-1.7886,-1.7881,-1.7878,-1.7888,-1.7857,-1.7866,-1.7868,-1.787,-1.7912,-1.7918,-1.7922,0,0,0,0,0,-1.8042,-1.8054,-1.8041,-1.8037,-1.8009,-1.7997,-1.7993,-1.7966,-1.7951,-1.7955,-1.7934,-1.7911,-1.7889,-1.7881,-1.7877,-1.7887,-1.7866,-1.7868,-1.787,-1.791,-1.7917,-1.7922,0,0,0,0,0,0,-1.8086,-1.805,-1.8035,-1.8037,-1.8021,-1.7989,-1.7993,-1.7974,-1.796,-1.7957,-1.7923,-1.7916,-1.7916,-1.7901,-1.7892,-1.7896,-1.7874,-1.7876,-1.7906,-1.7912,-1.7917,-1.7921,-1.7857,0,0,0,0,0,-1.8096,-1.809,-1.8059,-1.8064,-1.8057,-1.8027,-1.802,-1.8001,-1.7982,-1.7974,-1.7953,-1.7935,-1.7923,-1.7917,-1.7905,-1.791,-1.7902,-1.7915,-1.792,-1.7924,-1.7926,-1.7927,-1.7932,-1.7878,-1.7878,-1.7878,0,0,-1.8116,-1.8096,-1.8094,-1.8072,-1.8057,-1.8051,-1.8021,-1.8016,-1.8011,-1.7973,-1.7969,-1.7952,-1.793,-1.793,-1.7929,-1.7918,-1.7939,-1.7927,-1.7931,-1.793,-1.793,-1.7935,-1.794,-1.7879,-1.7879,-1.7879,0,0,-1.8151,-1.8135,-1.8138,-1.8123,-1.8101,-1.8081,-1.8082,-1.8053,-1.8041,-1.8036,-1.8008,-1.8001,-1.7983,-1.7968,-1.7958,-1.7988,-1.7966,-1.7985,-1.8011,-1.8012,-1.8017,-1.802,-1.8031,-1.8035,-1.7986,-1.7986,-1.7987,0,-1.8179,-1.817,-1.8141,-1.8139,-1.813,-1.8096,-1.8099,-1.8086,-1.806,-1.8055,-1.8042,-1.8019,-1.8001,-1.7998,-1.8005,-1.7998,-1.7998,-1.7988,-1.8019,-1.8022,-1.8025,-1.8034,-1.8038,-1.7989,-1.7989,-1.7988,-1.7988,0,-1.8205,-1.8199,-1.8204,-1.8182,-1.8173,-1.8173,-1.8144,-1.8139,-1.8121,-1.8102,-1.8097,-1.8075,-1.8058,-1.8056,-1.8037,-1.805,-1.8043,-1.8025,-1.8002,-1.8033,-1.8041,-1.8045,-1.7992,-1.7991,-1.7991,-1.799,0,0,-1.8265,-1.8228,-1.823,-1.8219,-1.8193,-1.8187,-1.8185,-1.817,-1.8166,-1.8149,-1.8147,-1.8132,-1.8116,-1.8104,-1.8084,-1.8086,-1.811,-1.8067,-1.8066,-1.8076,-1.8123,-1.8136,-1.8141,-1.8096,-1.8097,-1.8097,-1.8125,0,-1.8295,-1.829,-1.8265,-1.8268,-1.8262,-1.823,-1.8229,-1.8212,-1.8194,-1.8186,-1.8166,-1.8157,-1.8135,-1.8128,-1.8129,-1.8107,-1.8119,-1.8105,-1.8092,-1.8092,-1.8099,-1.8145,-1.816,-1.8187,-1.8128,-1.8128,-1.8128,0,-1.8329,-1.8316,-1.8318,-1.8292,-1.8288,-1.8287,-1.8271,-1.8264,-1.8244,-1.8231,-1.8219,-1.8196,-1.8192,-1.8171,-1.8164,-1.8155,-1.8148,-1.8137,-1.8137,-1.8135,-1.8112,-1.8144,-1.8195,-1.8199,-1.8133,-1.8133,-1.8133,0,-1.8372,-1.8355,-1.8355,-1.8346,-1.8316,-1.8316,-1.8303,-1.8282,-1.8274,-1.826,-1.8254,-1.8239,-1.8231,-1.8219,-1.8193,-1.818,-1.8189,-1.8166,-1.8178,-1.8178,-1.8181,-1.8181,-1.8231,-1.8177,-1.8177,-1.8177,-1.8177,0,-1.8408,-1.8411,-1.8374,-1.8373,-1.8375,-1.8346,-1.8348,-1.8332,-1.8314,-1.8309,-1.8281,-1.8277,-1.8242,-1.8234,-1.8214,-1.8211,-1.8207,-1.8196,-1.8191,-1.8199,-1.82,-1.8194,-1.8191,-1.8178,-1.8178,-1.8177,-1.8177,0,-1.8457,-1.8432,-1.843,-1.8401,-1.8394,-1.8397,-1.8372,-1.837,-1.8351,-1.8345,-1.8342,-1.8312,-1.8301,-1.8274,-1.8255,-1.8241,-1.8244,-1.8234,-1.8251,-1.8247,-1.8261,-1.826,-1.8308,-1.8313,-1.8257,-1.8257,-1.8258,0,-1.8481,-1.8483,-1.8455,-1.845,-1.8439,-1.8431,-1.8423,-1.8395,-1.8388,-1.8365,-1.8366,-1.8353,-1.8341,-1.8325,-1.8301,-1.8286,-1.8275,-1.8293,-1.8273,-1.8281,-1.8275,-1.8276,-1.8275,-1.8298,-1.8299,-1.8299,-1.83,0,-1.8527,-1.8515,-1.8505,-1.8492,-1.8484,-1.8471,-1.8457,-1.8455,-1.8422,-1.8416,-1.8405,-1.8396,-1.8377,-1.8365,-1.8347,-1.8332,-1.8311,-1.8307,-1.8308,-1.8316,-1.8326,-1.8321,-1.8263,-1.8305,-1.8305,-1.8304,-1.8304,-1.8304,-1.8564,-1.8564,-1.8544,-1.8535,-1.8521,-1.8509,-1.8506,-1.8487,-1.8478,-1.8461,-1.8445,-1.8435,-1.8415,-1.8389,-1.8376,-1.8368,-1.8356,-1.8359,-1.836,-1.8361,-1.8365,-1.8328,-1.8364,-1.8364,-1.8364,-1.8364,-1.8364,0,-1.8608,-1.8594,-1.8586,-1.8567,-1.856,-1.8541,-1.8525,-1.8519,-1.8512,-1.8495,-1.8484,-1.8472,-1.8459,-1.8435,-1.842,-1.8418,-1.8407,-1.8415,-1.8414,-1.8411,-1.8376,-1.8375,-1.8424,-1.8424,-1.8424,-1.8424,-1.8424,-1.8424,-1.863,-1.8629,-1.8615,-1.8607,-1.8592,-1.8584,-1.8576,-1.8564,-1.8551,-1.8538,-1.8528,-1.8513,-1.8493,-1.8476,-1.8464,-1.8457,-1.8452,-1.8463,-1.8453,-1.842,-1.8414,-1.8409,-1.8408,-1.8463,-1.8463,-1.8489,-1.849,-1.849]}]]